Location: Newark
(37.3186°N, 13.6631°E)
Time: 12:16:21
(UTC+00:00)

Hubble Space Telescope - Visible Passes

Search period start: 14 November 2019 00:00
Search period end: 24 November 2019 00:00
Orbit: 536 x 540 km, 28.5° (Epoch: 13 November)

Date Brightness Start Highest point End Pass type
(mag) Time Alt. Az. Time Alt. Az. Time Alt. Az.
18 Nov 3.4 18:17:46 10° SSW 18:18:38 14° SSW 18:18:38 14° SSW visible
19 Nov 3.0 18:06:54 10° SW 18:08:41 18° SSW 18:08:41 18° SSW visible
20 Nov 2.7 17:56:06 10° SW 17:58:42 21° S 17:58:42 21° S visible
21 Nov 2.4 17:45:20 10° SW 17:48:37 23° S 17:48:44 23° S visible
22 Nov 2.4 17:34:37 10° SW 17:37:57 23° S 17:38:46 22° SSE visible
23 Nov 2.5 17:23:57 10° SW 17:27:16 24° S 17:28:49 19° SSE visible
